Weather History for Sarasota, FL

Change the Weather History Date:

Monday, February 25, 2013

  Actual Average Record
Temperature  
Mean Temperature 74 °F 64 °F  
Max Temperature 82 °F 74 °F 87 °F (1922)
Min Temperature 65 °F 55 °F 28 °F (1989)
Degree Days  
Heating Degree Days 0 3  
Month to date heating degree days 79 89  
Since 1 July heating degree days 243 409  
Cooling Degree Days 9 2  
Month to date cooling degree days 77 46  
Year to date cooling degree days 194 98  
Growing Degree Days 23 (Base 50)    
Moisture  
Dew Point 68 °F    
Average Humidity 91    
Maximum Humidity 100    
Minimum Humidity 65    
Precipitation  
Precipitation 0.00 in 0.13 in 2.19 in (1992)
Month to date precipitation 0.54 2.25  
Year to date precipitation 0.74 4.74  
Sea Level Pressure  
Sea Level Pressure 29.85 in    
Wind  
Wind Speed 10 mph (SE)    
Max Wind Speed 22 mph    
Max Gust Speed 28 mph    
Visibility 5 miles    
Events      
T = Trace of Precipitation, MM = Missing Value Source: NWS Daily Summary

Daily Weather History Graph

Daily Weather History Graph

Search for Another Location

Airport:

Trip Planner

Search our weather history database for the weather conditions in past years. The results will help you decide how hot, cold, wet, or windy it might be!

Date:

Astronomy

Feb. 25, 2013 Rise Set
Actual Time 6:58 AM EST 6:28 PM EST
Civil Twilight 6:34 AM EST 6:52 PM EST
Nautical Twilight 6:07 AM EST 7:19 PM EST
Astronomical Twilight 5:40 AM EST 7:46 PM EST
Moon 6:34 PM EST 6:30 AM EST
Length of Visible Light 12h 17m
Length of Day
11h 30m
Full, 100% of the Moon is Illuminated
Feb 25
Full
Feb 25
Full
Mar 4
Last Quarter
Mar 11
New
Mar 19
First Quarter

Hourly Weather History & Observations

Time (EST) Temp. Heat Index Dew Point Humidity Pressure Visibility Wind Dir Wind Speed Gust Speed Precip Events Conditions
12:02 AM 69.8 °F - 68.0 °F 94% 29.91 in 3.0 mi East 5.8 mph - N/A   Scattered Clouds
12:10 AM 69.8 °F - 69.8 °F 100% 29.91 in 3.0 mi East 4.6 mph - N/A   Mostly Cloudy
12:43 AM 69.8 °F - 69.8 °F 100% 29.89 in 2.5 mi SE 4.6 mph - N/A   Overcast
12:53 AM 70.0 °F - 69.1 °F 97% 29.89 in 1.2 mi ESE 4.6 mph - N/A   Overcast
1:01 AM 69.8 °F - 69.8 °F 100% 29.90 in 0.5 mi ESE 5.8 mph - N/A   Mist
1:53 AM 69.1 °F - 69.1 °F 100% 29.88 in 0.5 mi SE 3.5 mph - N/A   Mist
2:53 AM 69.1 °F - 69.1 °F 100% 29.86 in 0.2 mi ESE 4.6 mph - N/A   Mist
3:17 AM 68.0 °F - 68.0 °F 100% 29.86 in 2.0 mi East 3.5 mph - N/A   Mostly Cloudy
3:31 AM 66.2 °F - 66.2 °F 100% 29.85 in 3.0 mi East 4.6 mph - N/A   Scattered Clouds
3:53 AM 66.9 °F - 66.0 °F 97% 29.85 in 3.0 mi ENE 3.5 mph - N/A   Scattered Clouds
4:01 AM 66.2 °F - 66.2 °F 100% 29.85 in 4.0 mi East 3.5 mph - 0.01 in   Mostly Cloudy
4:20 AM 66.2 °F - 66.2 °F 100% 29.84 in 1.8 mi East 5.8 mph - 0.01 in   Overcast
4:38 AM 66.2 °F - 66.2 °F 100% 29.84 in 0.8 mi ESE 6.9 mph - 0.01 in   Mist
4:53 AM 66.9 °F - 66.0 °F 97% 29.85 in 0.5 mi ESE 5.8 mph - 0.01 in   Mist
5:23 AM 66.2 °F - 66.2 °F 100% 29.84 in 1.2 mi ESE 8.1 mph - N/A   Overcast
5:42 AM 66.2 °F - 66.2 °F 100% 29.85 in 2.5 mi ESE 8.1 mph - N/A   Overcast
5:50 AM 66.2 °F - 66.2 °F 100% 29.84 in 4.0 mi ESE 8.1 mph - N/A   Overcast
5:53 AM 66.0 °F - 66.0 °F 100% 29.84 in 4.0 mi ESE 8.1 mph - N/A   Overcast
6:11 AM 66.2 °F - 64.4 °F 94% 29.84 in 5.0 mi ESE 8.1 mph - N/A   Scattered Clouds
6:53 AM 64.9 °F - 64.9 °F 100% 29.87 in 5.0 mi SE 4.6 mph - N/A   Partly Cloudy
7:10 AM 66.2 °F - 64.4 °F 94% 29.88 in 4.0 mi ESE 4.6 mph - N/A   Mostly Cloudy
7:32 AM 66.2 °F - 66.2 °F 100% 29.88 in 2.0 mi ESE 4.6 mph - N/A   Overcast
7:40 AM 66.2 °F - 66.2 °F 100% 29.87 in 1.2 mi ESE 6.9 mph - N/A   Overcast
7:51 AM 66.2 °F - 66.2 °F 100% 29.87 in 0.8 mi ESE 6.9 mph - N/A   Overcast
7:53 AM 66.9 °F - 66.0 °F 97% 29.87 in 1.0 mi ESE 6.9 mph - N/A   Overcast
8:08 AM 68.0 °F - 66.2 °F 94% 29.88 in 3.0 mi ESE 5.8 mph - N/A   Overcast
8:37 AM 69.8 °F - 68.0 °F 94% 29.88 in 6.0 mi ESE 6.9 mph - N/A   Partly Cloudy
8:53 AM 71.1 °F - 68.0 °F 90% 29.89 in 9.0 mi SE 5.8 mph - N/A   Clear
9:53 AM 77.0 °F - 66.9 °F 71% 29.89 in 10.0 mi SSE 10.4 mph - N/A   Scattered Clouds
10:53 AM 79.0 °F - 66.9 °F 66% 29.86 in 10.0 mi South 10.4 mph - N/A   Clear
11:53 AM 80.1 °F 82.7 °F 68.0 °F 67% 29.85 in 10.0 mi South 8.1 mph - N/A   Overcast
1:53 PM 81.0 °F 84.4 °F 70.0 °F 69% 29.81 in 10.0 mi South 18.4 mph 24.2 mph N/A   Mostly Cloudy
2:53 PM 82.0 °F 85.9 °F 70.0 °F 67% 29.79 in 10.0 mi South 18.4 mph 25.3 mph N/A   Clear
3:53 PM 80.1 °F 83.6 °F 71.1 °F 74% 29.80 in 10.0 mi South 16.1 mph - N/A   Mostly Cloudy
4:53 PM 78.1 °F - 71.1 °F 79% 29.78 in 10.0 mi South 16.1 mph - N/A   Overcast
5:53 PM 77.0 °F - 69.1 °F 76% 29.78 in 10.0 mi South 12.7 mph - N/A   Overcast
6:53 PM 75.9 °F - 70.0 °F 82% 29.79 in 10.0 mi South 15.0 mph - N/A   Clear
7:53 PM 75.0 °F - 69.1 °F 82% 29.78 in 10.0 mi SSE 6.9 mph - N/A   Clear
8:53 PM 71.1 °F - 68.0 °F 90% 29.81 in 9.0 mi SE 4.6 mph - N/A   Clear
9:53 PM 70.0 °F - 68.0 °F 93% 29.80 in 7.0 mi SSE 8.1 mph - N/A   Partly Cloudy
10:53 PM 73.0 °F - 69.1 °F 87% 29.79 in 10.0 mi SSE 12.7 mph - N/A   Clear
11:53 PM 73.0 °F - 69.1 °F 87% 29.79 in 9.0 mi SSE 10.4 mph - N/A   Clear